SCP
-0 -0 -0 0 0 0 -0 -0 0 -0 -0 0 -0 -0 -0 -0 -0 0 -0 -0 -0 -0 -0 -0 0 0 0 0 0 0 0 -0 -0 -0 -0 0 0 -0 0 0 0 0 0 0 0 0 0 0 0
-0 -0 -0 0 0 -0 -0 -0 -0 -0 -0 -0 -0 0 -0 -0 -0 -0 -0 -0 -0 -0 -0 -0 0 0 0 0 -0 -0 -0 -0 -0 -0 0 -0 -0 -0 -0 -0 -0 -0 -0 -0 -0 -0 -0 0 0
-0 -0 -0 0 -0 -0 -0 -0 -0 -0 -0 0 -0 -0 -0 -0 -0 -0 -0 -0 -0 -0 -0 -0 -0 0 0 -0 -0 -0 -0 -0 -0 -0 -0 -0 -0 -0 -0 -0 0 0 0 0 0 -0 -0 -0 -0
0 0 0 0 0 -0 -0 -0 0 -0 -0 -0 0 -0 -0 -0 -0 -0 -0 -0 -0 -0 -0 -0 -0 0 -0 -0 -0 -0 0 0 0 0 -0 -0 -0 -0 -0 0 0 0 0 0 0 0 0 0 0
0 0 0 -0 -0 -0 -0 -0 -0 -0 -0 -0 0 -0 -0 -0 -0 -0 -0 -0 -0 -0 -0 -0 -0 -0 -0 -0 0 -0 0 0 0 0 0 0 0 0 0 0 0 0 0 0 0 0 0 0 0
0 -0 -0 0 -0 -0 -0 -0 -0 -0 -0 0 -0 -0 -0 -0 -0 -0 -0 -0 -0 -0 -0 -0 -0 -0 -0 -0 -0 0 0 0 0 0 0 0 0 0 0 0 0 0 0 0 0 0 0 0 0
-0 -0 -0 -0 -0 -0 -0 0 -0 -0 0 -0 -0 -0 -0 -0 -0 -0 -0 -0 0 -0 -0 -0 -0 -0 -0 -0 -0 0 0 0 0 0 0 0 0 0 0 0 0 0 0 0 0 0 0 0 0
-0 0 0 0 -0 -0 0 0 -0 0 -0 0 -0 0 -0 -0 -0 -0 -0 0 0 -0 -0 -0 -0 -0 -0 -0 0 0 0 0 0 0 0 0 0 0 0 0 0 0 0 0 0 0 0 0 0
-0 0 -0 0 -0 -0 -0 -0 0 -0 -0 0 0 0 -0 -0 -0 -0 -0 -0 0 0 -0 -0 -0 -0 -0 -0 0 0 0 0 0 0 0 0 0 -0 -0 0 0 0 0 0 0 0 0 0 0
0 -0 0 0 0 -0 -0 -0 -0 -0 -0 -0 -0 -0 -0 -0 -0 -0 -0 -0 -0 -0 0 -0 -0 -0 -0 -0 -0 0 0 0 0 0 0 0 0 0 0 0 0 0 0 0 0 -0 0 0 0
-0 -0 0 0 0 0 -0 -0 -0 -0 -0 -0 -0 -0 -0 -0 -0 -0 -0 -0 -0 -0 0 0 0 0 0 0 0 0 0 0 0 0 0 0 0 0 0 0 0 0 -0 0 -0 0 0 0 0
-0 -0 0 0 0 -0 0 -0 0 -0 -0 -0 -0 -0 -0 -0 -0 -0 0 0 -0 -0 -0 0 -0 0 0 -0 0 0 0 0 0 0 0 0 0 0 0 0 -0 0 0 0 -0 0 0 0 -0
-0 -0 0 0 0 -0 0 -0 -0 0 0 -0 -0 -0 -0 -0 -0 -0 -0 0 0 -0 -0 0 -0 -0 0 -0 0 -0 -0 0 0 0 0 0 0 0 0 0 -0 -0 -0 0 0 0 0 0 0
0 -0 0 0 0 0 0 -0 0 -0 0 -0 -0 -0 -0 -0 -0 -0 -0 -0 0 -0 -0 -0 -0 -0 -0 -0 -0 -0 -0 0 0 0 0 0 0 0 0 0 0 0 -0 -0 -0 0 0 0 -0
-0 -0 0 0 0 0 0 -0 -0 -0 -0 -0 -0 -0 -0 -0 -0 -0 -0 -0 -0 -0 -0 -0 -0 -0 -0 0 0 -0 0 -0 0 0 0 0 0 0 -0 0 -0 0 0 -0 -0 -0 0 0 0
-0 -0 0 -0 0 -0 -0 -0 0 -0 -0 -0 -0 -0 -0 -0 -0 -0 -0 -0 -0 -0 -0 -0 -0 -0 -0 0 0 -0 0 0 0 0 0 0 0 0 0 0 0 0 0 0 0 0 -0 -0 -0
-0 0 0 0 0 0 -0 -0 -0 0 -0 -0 -0 -0 -0 0 -0 -0 -0 -0 -0 -0 -0 -0 -0 -0 -0 0 0 0 0 0 0 0 0 0 0 0 0 -0 0 0 -0 -0 0 0 0 0 -0
0 0 0 0 0 0 -0 -0 -0 0 -0 0 0 -0 -0 0 -0 -0 -0 -0 -0 -0 -0 -0 -0 0 0 0 0 0 0 0 0 0 0 0 0 0 0 0 0 0 -0 0 0 0 0 0 -0
0 0 -0 0 0 0 0 -0 0 0 -0 0 -0 0 -0 -0 0 -0 -0 -0 -0 -0 -0 -0 0 0 0 0 0 0 0 0 0 0 0 0 0 0 0 0 0 0 -0 0 0 0 0 0 0
0 0 0 0 0 0 0 -0 -0 0 0 0 0 0 0 -0 0 -0 -0 -0 -0 -0 -0 -0 -0 -0 0 0 0 0 0 0 0 0 0 0 0 0 0 0 -0 0 0 0 0 0 -0 0 0
0 0 0 -0 0 0 -0 -0 0 -0 0 0 0 0 0 0 -0 -0 -0 -0 -0 -0 -0 -0 -0 -0 -0 0 0 0 0 0 0 0 0 0 0 0 0 0 0 0 0 0 0 0 0 0 0
0 0 0 0 0 0 0 0 0 0 0 -0 0 0 0 0 0 0 -0 -0 -0 -0 0 0 0 0 0 1 0 1 1 0 0 1 0 1 0 0 0 1 0 1 0 0 1 0 0 1 0
0 0 0 0 0 0 0 0 0 0 0 0 -0 0 0 0 0 0 -0 -0 -0 0 -0 1 0 1 1 1 0 1 1 0 1 2 2 1 2 1 0 0 1 1 1 1 1 1 1 0 1
0 0 0 0 0 0 0 0 0 0 0 0 0 0 -0 0 0 0 0 0 0 0 0 0 1 1 1 1 1 2 2 1 1 2 2 2 1 1 1 1 1 1 1 1 1 1 1 1 1
0 0 0 0 0 0 0 0 0 0 0 0 0 0 0 0 0 0 0 0 0 0 0 0 1 1 1 1 1 2 3 3 3 3 2 1 2 1 1 1 2 2 2 1 1 1 1 1 1
0 0 0 0 0 0 -0 0 0 0 0 0 0 0 0 0 0 0 0 0 0 0 0 0 1 1 2 1 2 3 4 5 3 1 2 2 1 2 2 2 2 1 2 1 1 2 1 1 1
0 0 -0 0 0 0 0 0 0 0 0 0 0 0 0 0 0 0 0 0 0 0 1 2 2 2 3 8 7 7 5 5 3 1 1 1 2 2 2 2 2 1 1 1 1 1 1 1 0
0 0 0 0 0 0 0 0 0 0 0 0 -0 0 0 1 0 0 0 0 0 0 1 5 6 9 3 2 0 0 0 0 1 -0 1 1 1 1 2 1 1 1 1 0 1 0 0 0 0
0 0 0 0 0 0 0 0 0 0 0 0 0 -0 0 1 1 0 0 1 1 4 6 7 7 3 2 1 0 0 0 0 0 0 1 1 1 1 1 1 1 1 0 0 0 0 0 0 0
0 0 0 0 0 0 0 0 0 0 0 0 0 0 0 0 0 1 1 1 3 5 6 3 3 2 1 0 0 0 0 0 1 0 0 1 1 1 1 1 0 0 0 0 0 0 0 0 0
Wind_Speed_500mb
9 7 6 18 15 13 22 24 7 19 23 13 15 26 28 33 32 11 42 30 34 31 31 31 31 30 27 24 22 23 23 21 20 20 20 19 23 22 21 21 23 20 16 13 11 12 13 11 13
6 14 19 25 9 10 18 22 32 25 20 14 11 3 9 28 23 43 36 37 34 31 32 29 32 30 25 22 22 24 24 23 21 20 20 22 22 22 22 23 26 26 23 19 14 13 15 14 13
16 20 31 25 28 18 22 28 26 18 12 7 8 15 14 23 33 35 36 41 34 33 30 31 33 30 25 22 23 23 22 21 20 20 20 21 21 22 21 24 26 26 24 23 19 16 16 16 15
8 21 26 1 10 21 24 24 10 20 17 10 9 27 28 34 22 27 43 37 35 32 28 35 34 30 25 23 24 23 21 20 19 19 21 22 21 22 23 25 24 23 21 21 20 18 17 17 16
19 29 27 20 30 20 25 19 27 15 13 18 4 30 26 17 28 43 41 36 34 33 29 35 34 29 25 24 23 21 20 18 18 19 22 22 22 22 25 28 29 30 26 22 19 16 14 12 11
29 33 18 4 28 13 27 14 9 27 18 12 26 31 25 26 36 39 37 34 32 32 30 34 34 30 25 24 24 21 19 17 16 18 20 20 22 24 27 29 29 30 30 29 23 19 14 11 11
34 25 20 21 26 21 24 6 24 16 13 20 21 19 26 30 33 36 35 32 32 29 31 31 32 30 26 25 24 22 19 17 15 17 17 18 21 24 26 27 29 27 24 24 26 22 19 18 17
38 22 9 9 13 27 24 8 17 15 20 15 8 9 31 36 37 36 34 33 32 30 27 29 29 27 24 24 24 23 21 18 14 14 14 15 17 19 21 23 24 26 28 23 19 20 20 19 20
24 24 21 10 9 24 28 22 14 13 19 8 9 2 40 40 39 38 36 34 32 30 29 29 28 27 25 22 24 23 21 18 14 13 14 16 9 8 14 10 16 19 21 22 18 17 21 23 17
28 26 11 17 13 2 24 22 23 18 16 17 13 26 38 43 41 40 38 37 34 32 31 31 30 28 27 21 23 21 19 15 13 8 5 5 7 11 8 9 11 20 12 24 28 16 19 11 6
33 32 20 13 5 11 19 22 19 18 23 23 26 32 39 40 39 38 35 34 34 33 31 30 32 30 27 23 18 17 16 14 12 15 11 6 5 5 12 12 8 18 19 4 12 14 4 3 1
30 32 2 13 6 13 13 31 13 5 16 21 32 37 41 42 40 37 34 32 33 34 34 33 31 31 28 21 19 18 17 17 13 12 14 10 8 3 2 9 7 11 3 1 3 1 8 6 6
29 28 16 10 7 15 9 22 14 14 13 26 36 38 38 38 37 35 33 32 32 34 34 36 32 33 30 26 20 19 18 18 15 14 14 11 6 11 7 4 5 5 4 5 3 3 4 4 3
33 38 18 14 14 17 22 16 12 23 18 31 37 37 36 37 37 35 35 36 34 34 36 35 34 32 29 27 22 20 20 19 18 16 14 15 9 9 8 16 5 4 5 1 1 2 3 4 7
27 28 26 24 25 14 28 27 25 32 26 34 36 36 37 37 38 38 36 35 36 35 35 37 35 32 34 32 26 20 19 19 18 16 19 16 13 10 14 11 3 7 5 8 6 6 7 6 9
28 29 32 32 19 19 29 36 37 28 33 35 36 36 39 40 41 39 37 36 35 35 35 36 34 35 35 32 27 23 22 22 20 18 16 18 15 13 14 12 6 9 6 8 9 8 8 9 10
30 29 36 23 20 17 30 22 32 37 36 36 38 40 41 42 43 43 42 42 40 38 36 36 38 37 35 34 29 28 26 27 22 20 18 18 16 14 17 11 11 12 12 12 13 12 12 11 11
36 39 35 31 28 21 28 30 37 34 37 35 38 41 42 44 49 48 48 46 44 42 41 38 40 42 39 32 35 28 28 28 28 26 24 23 19 15 18 14 16 13 14 14 14 16 14 14 14
27 28 39 18 16 33 33 30 22 37 33 34 39 41 44 47 47 51 52 52 49 48 47 47 45 46 45 39 34 34 32 30 29 29 29 27 26 20 20 16 19 16 16 18 14 17 17 14 15
25 32 32 26 28 16 33 35 32 33 34 35 34 39 44 48 49 54 58 60 60 58 58 56 55 53 52 41 41 36 33 29 27 27 30 32 30 25 21 22 19 21 22 24 19 20 17 19 18
31 36 30 36 20 27 35 37 29 26 26 37 37 37 44 48 55 58 63 68 65 67 67 62 62 60 58 52 44 45 36 36 30 29 31 31 31 29 26 24 25 24 29 22 28 19 18 19 24
29 31 34 36 24 21 36 30 33 35 33 35 32 40 46 49 54 61 66 69 72 73 67 66 64 62 64 60 49 50 43 37 32 31 34 34 32 33 34 35 32 33 23 25 25 21 17 24 22
28 24 23 35 31 29 46 27 27 24 38 36 41 51 48 50 54 63 71 74 70 67 71 74 69 64 64 64 58 53 47 33 32 31 31 33 31 35 42 37 35 35 32 33 34 29 32 27 32
20 18 21 30 32 35 41 41 29 26 31 33 42 46 56 53 51 57 69 68 68 70 70 68 70 68 65 63 61 62 48 40 32 32 32 32 31 36 36 36 38 38 38 34 33 34 33 40 36
22 22 19 22 23 32 38 42 38 37 39 30 28 39 48 50 49 48 58 72 71 68 69 69 60 58 57 57 52 56 56 44 37 29 33 31 29 25 28 33 37 37 34 34 34 35 38 32 32
30 28 24 26 24 26 45 41 34 33 18 23 46 47 42 37 43 22 42 63 72 71 70 64 59 50 45 43 39 36 35 29 23 28 29 31 25 25 30 27 28 28 26 27 27 32 28 24 16
24 30 32 33 33 27 26 21 8 21 18 24 39 37 29 26 20 29 35 47 62 71 73 69 57 44 42 48 50 48 38 18 21 32 36 34 32 27 24 19 22 18 20 22 27 24 13 15 15
28 13 19 17 27 30 28 25 20 23 19 17 22 18 6 11 11 17 24 25 37 46 63 62 60 63 59 57 53 48 36 16 34 48 40 35 30 24 23 18 19 19 21 16 9 4 14 13 17
17 24 24 25 21 24 18 14 25 23 20 22 27 35 30 18 14 9 5 9 16 24 38 58 60 61 47 41 39 47 60 27 53 47 42 36 27 24 17 17 15 11 10 8 6 7 13 14 16
19 27 19 14 18 22 22 25 34 19 11 25 35 40 25 18 5 2 11 19 24 26 32 39 40 37 44 44 40 43 54 59 56 42 32 27 20 13 12 11 13 9 4 3 5 8 11 11 15
Wind_Direction_500mb
237 250 253 260 262 216 89 91 48 50 63 51 48 2 44 32 25 98 136 137 142 143 150 154 148 144 140 136 134 128 121 115 109 102 94 79 73 72 66 61 60 60 60 67 76 116 133 132 118
208 252 257 270 272 276 80 58 54 55 63 71 82 277 68 74 74 131 132 141 145 144 140 154 148 147 141 136 129 124 121 119 114 103 84 79 78 73 70 70 72 73 70 71 77 104 126 130 119
196 238 273 246 213 50 87 66 71 86 100 41 125 31 11 90 112 135 141 144 145 142 147 159 155 149 143 132 129 126 123 117 105 94 87 84 79 74 72 70 71 73 76 77 81 93 112 120 118
234 241 248 267 25 53 93 78 122 118 99 41 59 94 87 118 119 142 144 147 145 146 154 160 156 149 141 137 136 132 125 116 106 99 93 89 83 81 77 71 69 71 77 81 85 94 108 116 117
244 260 257 218 89 110 84 76 48 109 118 67 343 95 114 113 131 139 147 151 148 148 163 163 158 151 143 142 139 136 131 121 110 99 94 90 85 82 75 74 73 72 74 78 84 98 107 111 109
242 253 275 331 93 85 111 127 109 53 62 79 95 124 100 134 140 147 151 152 151 156 153 165 161 153 149 147 149 147 139 123 112 100 94 89 85 80 78 80 78 74 71 72 79 85 94 108 99
254 253 244 208 112 180 108 112 66 60 110 67 135 117 135 152 151 154 154 156 156 158 160 159 163 159 155 155 157 155 144 135 124 106 97 93 87 81 76 77 73 69 71 76 77 87 90 94 95
269 284 249 243 140 101 103 139 68 5 78 101 154 133 163 161 158 160 159 161 159 161 164 166 168 164 160 163 166 163 154 148 130 117 103 93 86 82 76 70 68 66 60 64 74 89 92 94 98
241 263 221 140 191 106 126 134 100 81 124 88 67 269 154 162 161 163 164 165 165 167 168 169 173 173 165 175 175 173 167 158 147 131 109 76 101 65 72 99 61 65 61 52 54 97 103 102 78
237 241 66 26 19 180 137 147 119 176 140 116 117 108 146 160 168 170 172 172 173 173 173 176 177 178 172 184 192 177 178 172 154 159 129 52 173 159 160 27 56 44 68 62 42 94 89 84 140
226 262 92 146 52 280 140 135 116 229 168 139 148 151 158 167 174 177 178 179 178 178 179 182 184 182 183 182 188 187 199 195 200 198 190 211 204 269 283 340 351 19 19 5 4 27 326 287 179
248 254 268 81 119 207 202 117 139 300 40 105 148 156 161 169 177 182 183 184 181 184 184 184 192 188 184 189 187 199 205 203 203 216 207 207 212 200 106 332 328 8 344 111 57 286 137 138 130
227 252 220 207 237 243 182 153 165 163 106 132 148 158 166 173 179 185 186 187 187 188 191 189 195 190 192 188 196 198 202 208 202 214 222 208 241 247 222 288 300 289 301 340 41 52 148 168 136
217 263 215 232 237 200 235 159 182 147 146 147 159 166 173 179 181 183 189 190 191 192 197 195 194 198 194 193 192 204 202 218 205 207 221 215 210 256 255 245 5 280 305 293 313 269 292 275 233
258 247 239 236 233 212 237 191 186 150 168 160 172 175 179 187 187 187 188 190 192 195 198 196 195 204 199 200 199 196 213 203 215 212 220 220 236 256 283 292 235 260 261 264 289 317 296 266 265
226 239 236 219 198 205 213 217 173 160 176 172 183 182 186 192 194 193 192 192 194 193 195 194 198 205 209 206 205 198 205 209 215 218 228 229 232 246 260 275 332 232 273 278 272 295 278 284 279
212 225 230 193 195 208 216 224 181 166 187 178 189 190 195 195 201 198 199 197 197 195 196 196 196 202 208 206 205 206 212 209 215 221 223 230 236 253 260 255 257 273 258 276 270 272 272 276 274
211 223 224 241 167 229 212 258 139 172 186 193 191 201 200 201 204 206 205 205 203 202 198 201 199 197 213 207 211 212 216 219 216 221 222 224 232 237 245 239 239 266 265 270 271 267 268 263 270
251 257 224 224 214 191 239 223 182 170 204 209 192 202 209 211 209 209 211 210 209 207 206 203 207 211 203 205 208 211 218 225 225 227 226 225 227 226 236 223 244 262 263 262 280 275 279 268 270
277 258 268 241 201 207 229 244 238 185 196 218 212 205 213 214 214 210 211 211 211 210 210 212 209 214 216 213 211 214 219 225 230 232 231 229 223 222 223 230 233 248 250 251 255 258 255 266 253
238 246 240 258 179 231 253 246 233 244 257 213 219 232 218 218 215 215 212 210 210 212 213 214 218 215 226 213 216 214 211 219 222 227 229 230 222 218 226 224 236 226 248 256 268 252 243 262 264
245 225 255 260 242 223 223 254 235 226 239 249 249 235 240 230 220 218 216 212 210 211 213 216 222 224 227 228 212 213 213 217 225 229 230 220 218 217 216 227 231 242 231 237 254 261 253 266 264
255 286 234 254 256 252 262 229 264 252 213 229 242 251 240 238 233 222 220 217 216 212 210 215 219 224 223 226 215 220 216 222 226 225 225 223 226 227 225 233 237 242 245 238 249 252 261 257 263
262 249 252 251 246 245 246 261 241 234 240 222 240 246 254 244 236 233 225 217 215 215 213 213 217 220 221 220 225 211 222 213 224 230 233 226 233 231 235 229 239 239 241 248 249 257 264 272 254
231 224 224 220 226 248 248 246 252 262 271 258 246 255 269 265 243 225 227 218 214 213 214 212 210 213 214 215 218 210 210 226 216 232 245 237 231 234 242 235 235 236 244 251 255 259 282 268 263
205 240 254 256 240 251 221 235 251 251 308 274 292 286 280 282 284 235 230 229 221 212 211 211 210 209 206 204 200 197 203 217 233 260 252 254 244 237 241 230 240 242 237 244 257 278 272 272 260
226 225 244 274 281 277 278 307 247 247 240 229 244 251 260 246 278 276 267 227 231 221 209 203 200 201 193 185 182 180 184 194 268 273 274 263 247 248 228 222 234 226 241 248 267 267 258 262 280
266 308 236 233 261 274 277 253 263 192 210 234 287 289 35 51 295 283 255 245 225 233 220 195 181 182 180 175 177 171 176 243 270 273 260 259 252 227 228 230 228 242 246 254 244 264 299 288 285
184 234 243 278 302 304 285 255 57 24 347 331 314 300 337 17 346 322 139 167 155 151 158 167 168 172 165 162 166 162 165 298 276 258 266 266 248 244 223 228 221 207 212 213 265 276 282 290 284
322 314 324 248 235 244 273 289 311 321 331 318 311 297 353 356 302 136 103 132 121 106 124 161 175 170 173 186 182 211 251 246 212 242 244 236 228 207 217 176 158 140 127 253 287 281 276 295 296
Wind_Speed_850mb
9 7 6 18 15 13 22 24 7 19 23 13 15 26 28 33 32 11 42 30 34 31 31 31 31 30 27 24 22 23 23 21 20 20 20 19 23 22 21 21 23 20 16 13 11 12 13 11 13
6 14 19 25 9 10 18 22 32 25 20 14 11 3 9 28 23 43 36 37 34 31 32 29 32 30 25 22 22 24 24 23 21 20 20 22 22 22 22 23 26 26 23 19 14 13 15 14 13
16 20 31 25 28 18 22 28 26 18 12 7 8 15 14 23 33 35 36 41 34 33 30 31 33 30 25 22 23 23 22 21 20 20 20 21 21 22 21 24 26 26 24 23 19 16 16 16 15
8 21 26 1 10 21 24 24 10 20 17 10 9 27 28 34 22 27 43 37 35 32 28 35 34 30 25 23 24 23 21 20 19 19 21 22 21 22 23 25 24 23 21 21 20 18 17 17 16
19 29 27 20 30 20 25 19 27 15 13 18 4 30 26 17 28 43 41 36 34 33 29 35 34 29 25 24 23 21 20 18 18 19 22 22 22 22 25 28 29 30 26 22 19 16 14 12 11
29 33 18 4 28 13 27 14 9 27 18 12 26 31 25 26 36 39 37 34 32 32 30 34 34 30 25 24 24 21 19 17 16 18 20 20 22 24 27 29 29 30 30 29 23 19 14 11 11
34 25 20 21 26 21 24 6 24 16 13 20 21 19 26 30 33 36 35 32 32 29 31 31 32 30 26 25 24 22 19 17 15 17 17 18 21 24 26 27 29 27 24 24 26 22 19 18 17
38 22 9 9 13 27 24 8 17 15 20 15 8 9 31 36 37 36 34 33 32 30 27 29 29 27 24 24 24 23 21 18 14 14 14 15 17 19 21 23 24 26 28 23 19 20 20 19 20
24 24 21 10 9 24 28 22 14 13 19 8 9 2 40 40 39 38 36 34 32 30 29 29 28 27 25 22 24 23 21 18 14 13 14 16 9 8 14 10 16 19 21 22 18 17 21 23 17
28 26 11 17 13 2 24 22 23 18 16 17 13 26 38 43 41 40 38 37 34 32 31 31 30 28 27 21 23 21 19 15 13 8 5 5 7 11 8 9 11 20 12 24 28 16 19 11 6
33 32 20 13 5 11 19 22 19 18 23 23 26 32 39 40 39 38 35 34 34 33 31 30 32 30 27 23 18 17 16 14 12 15 11 6 5 5 12 12 8 18 19 4 12 14 4 3 1
30 32 2 13 6 13 13 31 13 5 16 21 32 37 41 42 40 37 34 32 33 34 34 33 31 31 28 21 19 18 17 17 13 12 14 10 8 3 2 9 7 11 3 1 3 1 8 6 6
29 28 16 10 7 15 9 22 14 14 13 26 36 38 38 38 37 35 33 32 32 34 34 36 32 33 30 26 20 19 18 18 15 14 14 11 6 11 7 4 5 5 4 5 3 3 4 4 3
33 38 18 14 14 17 22 16 12 23 18 31 37 37 36 37 37 35 35 36 34 34 36 35 34 32 29 27 22 20 20 19 18 16 14 15 9 9 8 16 5 4 5 1 1 2 3 4 7
27 28 26 24 25 14 28 27 25 32 26 34 36 36 37 37 38 38 36 35 36 35 35 37 35 32 34 32 26 20 19 19 18 16 19 16 13 10 14 11 3 7 5 8 6 6 7 6 9
28 29 32 32 19 19 29 36 37 28 33 35 36 36 39 40 41 39 37 36 35 35 35 36 34 35 35 32 27 23 22 22 20 18 16 18 15 13 14 12 6 9 6 8 9 8 8 9 10
30 29 36 23 20 17 30 22 32 37 36 36 38 40 41 42 43 43 42 42 40 38 36 36 38 37 35 34 29 28 26 27 22 20 18 18 16 14 17 11 11 12 12 12 13 12 12 11 11
36 39 35 31 28 21 28 30 37 34 37 35 38 41 42 44 49 48 48 46 44 42 41 38 40 42 39 32 35 28 28 28 28 26 24 23 19 15 18 14 16 13 14 14 14 16 14 14 14
27 28 39 18 16 33 33 30 22 37 33 34 39 41 44 47 47 51 52 52 49 48 47 47 45 46 45 39 34 34 32 30 29 29 29 27 26 20 20 16 19 16 16 18 14 17 17 14 15
25 32 32 26 28 16 33 35 32 33 34 35 34 39 44 48 49 54 58 60 60 58 58 56 55 53 52 41 41 36 33 29 27 27 30 32 30 25 21 22 19 21 22 24 19 20 17 19 18
31 36 30 36 20 27 35 37 29 26 26 37 37 37 44 48 55 58 63 68 65 67 67 62 62 60 58 52 44 45 36 36 30 29 31 31 31 29 26 24 25 24 29 22 28 19 18 19 24
29 31 34 36 24 21 36 30 33 35 33 35 32 40 46 49 54 61 66 69 72 73 67 66 64 62 64 60 49 50 43 37 32 31 34 34 32 33 34 35 32 33 23 25 25 21 17 24 22
28 24 23 35 31 29 46 27 27 24 38 36 41 51 48 50 54 63 71 74 70 67 71 74 69 64 64 64 58 53 47 33 32 31 31 33 31 35 42 37 35 35 32 33 34 29 32 27 32
20 18 21 30 32 35 41 41 29 26 31 33 42 46 56 53 51 57 69 68 68 70 70 68 70 68 65 63 61 62 48 40 32 32 32 32 31 36 36 36 38 38 38 34 33 34 33 40 36
22 22 19 22 23 32 38 42 38 37 39 30 28 39 48 50 49 48 58 72 71 68 69 69 60 58 57 57 52 56 56 44 37 29 33 31 29 25 28 33 37 37 34 34 34 35 38 32 32
30 28 24 26 24 26 45 41 34 33 18 23 46 47 42 37 43 22 42 63 72 71 70 64 59 50 45 43 39 36 35 29 23 28 29 31 25 25 30 27 28 28 26 27 27 32 28 24 16
24 30 32 33 33 27 26 21 8 21 18 24 39 37 29 26 20 29 35 47 62 71 73 69 57 44 42 48 50 48 38 18 21 32 36 34 32 27 24 19 22 18 20 22 27 24 13 15 15
28 13 19 17 27 30 28 25 20 23 19 17 22 18 6 11 11 17 24 25 37 46 63 62 60 63 59 57 53 48 36 16 34 48 40 35 30 24 23 18 19 19 21 16 9 4 14 13 17
17 24 24 25 21 24 18 14 25 23 20 22 27 35 30 18 14 9 5 9 16 24 38 58 60 61 47 41 39 47 60 27 53 47 42 36 27 24 17 17 15 11 10 8 6 7 13 14 16
19 27 19 14 18 22 22 25 34 19 11 25 35 40 25 18 5 2 11 19 24 26 32 39 40 37 44 44 40 43 54 59 56 42 32 27 20 13 12 11 13 9 4 3 5 8 11 11 15
Wind_Direction_850mb
237 250 253 260 262 216 89 91 48 50 63 51 48 2 44 32 25 98 136 137 142 143 150 154 148 144 140 136 134 128 121 115 109 102 94 79 73 72 66 61 60 60 60 67 76 116 133 132 118
208 252 257 270 272 276 80 58 54 55 63 71 82 277 68 74 74 131 132 141 145 144 140 154 148 147 141 136 129 124 121 119 114 103 84 79 78 73 70 70 72 73 70 71 77 104 126 130 119
196 238 273 246 213 50 87 66 71 86 100 41 125 31 11 90 112 135 141 144 145 142 147 159 155 149 143 132 129 126 123 117 105 94 87 84 79 74 72 70 71 73 76 77 81 93 112 120 118
234 241 248 267 25 53 93 78 122 118 99 41 59 94 87 118 119 142 144 147 145 146 154 160 156 149 141 137 136 132 125 116 106 99 93 89 83 81 77 71 69 71 77 81 85 94 108 116 117
244 260 257 218 89 110 84 76 48 109 118 67 343 95 114 113 131 139 147 151 148 148 163 163 158 151 143 142 139 136 131 121 110 99 94 90 85 82 75 74 73 72 74 78 84 98 107 111 109
242 253 275 331 93 85 111 127 109 53 62 79 95 124 100 134 140 147 151 152 151 156 153 165 161 153 149 147 149 147 139 123 112 100 94 89 85 80 78 80 78 74 71 72 79 85 94 108 99
254 253 244 208 112 180 108 112 66 60 110 67 135 117 135 152 151 154 154 156 156 158 160 159 163 159 155 155 157 155 144 135 124 106 97 93 87 81 76 77 73 69 71 76 77 87 90 94 95
269 284 249 243 140 101 103 139 68 5 78 101 154 133 163 161 158 160 159 161 159 161 164 166 168 164 160 163 166 163 154 148 130 117 103 93 86 82 76 70 68 66 60 64 74 89 92 94 98
241 263 221 140 191 106 126 134 100 81 124 88 67 269 154 162 161 163 164 165 165 167 168 169 173 173 165 175 175 173 167 158 147 131 109 76 101 65 72 99 61 65 61 52 54 97 103 102 78
237 241 66 26 19 180 137 147 119 176 140 116 117 108 146 160 168 170 172 172 173 173 173 176 177 178 172 184 192 177 178 172 154 159 129 52 173 159 160 27 56 44 68 62 42 94 89 84 140
226 262 92 146 52 280 140 135 116 229 168 139 148 151 158 167 174 177 178 179 178 178 179 182 184 182 183 182 188 187 199 195 200 198 190 211 204 269 283 340 351 19 19 5 4 27 326 287 179
248 254 268 81 119 207 202 117 139 300 40 105 148 156 161 169 177 182 183 184 181 184 184 184 192 188 184 189 187 199 205 203 203 216 207 207 212 200 106 332 328 8 344 111 57 286 137 138 130
227 252 220 207 237 243 182 153 165 163 106 132 148 158 166 173 179 185 186 187 187 188 191 189 195 190 192 188 196 198 202 208 202 214 222 208 241 247 222 288 300 289 301 340 41 52 148 168 136
217 263 215 232 237 200 235 159 182 147 146 147 159 166 173 179 181 183 189 190 191 192 197 195 194 198 194 193 192 204 202 218 205 207 221 215 210 256 255 245 5 280 305 293 313 269 292 275 233
258 247 239 236 233 212 237 191 186 150 168 160 172 175 179 187 187 187 188 190 192 195 198 196 195 204 199 200 199 196 213 203 215 212 220 220 236 256 283 292 235 260 261 264 289 317 296 266 265
226 239 236 219 198 205 213 217 173 160 176 172 183 182 186 192 194 193 192 192 194 193 195 194 198 205 209 206 205 198 205 209 215 218 228 229 232 246 260 275 332 232 273 278 272 295 278 284 279
212 225 230 193 195 208 216 224 181 166 187 178 189 190 195 195 201 198 199 197 197 195 196 196 196 202 208 206 205 206 212 209 215 221 223 230 236 253 260 255 257 273 258 276 270 272 272 276 274
211 223 224 241 167 229 212 258 139 172 186 193 191 201 200 201 204 206 205 205 203 202 198 201 199 197 213 207 211 212 216 219 216 221 222 224 232 237 245 239 239 266 265 270 271 267 268 263 270
251 257 224 224 214 191 239 223 182 170 204 209 192 202 209 211 209 209 211 210 209 207 206 203 207 211 203 205 208 211 218 225 225 227 226 225 227 226 236 223 244 262 263 262 280 275 279 268 270
277 258 268 241 201 207 229 244 238 185 196 218 212 205 213 214 214 210 211 211 211 210 210 212 209 214 216 213 211 214 219 225 230 232 231 229 223 222 223 230 233 248 250 251 255 258 255 266 253
238 246 240 258 179 231 253 246 233 244 257 213 219 232 218 218 215 215 212 210 210 212 213 214 218 215 226 213 216 214 211 219 222 227 229 230 222 218 226 224 236 226 248 256 268 252 243 262 264
245 225 255 260 242 223 223 254 235 226 239 249 249 235 240 230 220 218 216 212 210 211 213 216 222 224 227 228 212 213 213 217 225 229 230 220 218 217 216 227 231 242 231 237 254 261 253 266 264
255 286 234 254 256 252 262 229 264 252 213 229 242 251 240 238 233 222 220 217 216 212 210 215 219 224 223 226 215 220 216 222 226 225 225 223 226 227 225 233 237 242 245 238 249 252 261 257 263
262 249 252 251 246 245 246 261 241 234 240 222 240 246 254 244 236 233 225 217 215 215 213 213 217 220 221 220 225 211 222 213 224 230 233 226 233 231 235 229 239 239 241 248 249 257 264 272 254
231 224 224 220 226 248 248 246 252 262 271 258 246 255 269 265 243 225 227 218 214 213 214 212 210 213 214 215 218 210 210 226 216 232 245 237 231 234 242 235 235 236 244 251 255 259 282 268 263
205 240 254 256 240 251 221 235 251 251 308 274 292 286 280 282 284 235 230 229 221 212 211 211 210 209 206 204 200 197 203 217 233 260 252 254 244 237 241 230 240 242 237 244 257 278 272 272 260
226 225 244 274 281 277 278 307 247 247 240 229 244 251 260 246 278 276 267 227 231 221 209 203 200 201 193 185 182 180 184 194 268 273 274 263 247 248 228 222 234 226 241 248 267 267 258 262 280
266 308 236 233 261 274 277 253 263 192 210 234 287 289 35 51 295 283 255 245 225 233 220 195 181 182 180 175 177 171 176 243 270 273 260 259 252 227 228 230 228 242 246 254 244 264 299 288 285
184 234 243 278 302 304 285 255 57 24 347 331 314 300 337 17 346 322 139 167 155 151 158 167 168 172 165 162 166 162 165 298 276 258 266 266 248 244 223 228 221 207 212 213 265 276 282 290 284
322 314 324 248 235 244 273 289 311 321 331 318 311 297 353 356 302 136 103 132 121 106 124 161 175 170 173 186 182 211 251 246 212 242 244 236 228 207 217 176 158 140 127 253 287 281 276 295 296